C6024 -KDCA

Flight info

Callsign C6024
Flight time N/A
Altitude VFR
Route
Aircraft H60/M-DOV/C

Departure

Time N/A
Airport -

Arrival

Time 2026-05-06 01:30
Airport Ronald Reagan Washington National Airport (KDCA)
Time Latitude Longitude Altitude Speed Heading
2026-05-06 00:34 37.16113 -76.90572 2865 ft 151 kts 318°
2026-05-06 00:34 37.17001 -76.91269 2863 ft 150 kts 318°
2026-05-06 00:34 37.17881 -76.91962 2865 ft 149 kts 318°
2026-05-06 00:34 37.18765 -76.92647 2863 ft 149 kts 318°
2026-05-06 00:35 37.19657 -76.93325 2866 ft 150 kts 318°
2026-05-06 00:35 37.20560 -76.94005 2857 ft 151 kts 318°
2026-05-06 00:35 37.21460 -76.94682 2855 ft 150 kts 318°
2026-05-06 00:35 37.22357 -76.95348 2861 ft 149 kts 318°
2026-05-06 00:36 37.23253 -76.96010 2862 ft 150 kts 318°
2026-05-06 00:36 37.23845 -76.96458 2855 ft 150 kts 318°
2026-05-06 00:36 37.25030 -76.97353 2858 ft 150 kts 318°
2026-05-06 00:36 37.25936 -76.98023 2858 ft 152 kts 318°
2026-05-06 00:37 37.26852 -76.98694 2853 ft 153 kts 318°
2026-05-06 00:37 37.27772 -76.99380 2851 ft 153 kts 318°
2026-05-06 00:37 37.28378 -76.99831 2848 ft 152 kts 318°
2026-05-06 00:37 37.29288 -77.00499 2848 ft 151 kts 318°
2026-05-06 00:38 37.30211 -77.01170 2848 ft 151 kts 318°
2026-05-06 00:38 37.31104 -77.01818 2848 ft 150 kts 318°
2026-05-06 00:38 37.32010 -77.02478 2846 ft 150 kts 312°
2026-05-06 00:38 37.32837 -77.03224 2847 ft 145 kts 306°
2026-05-06 00:39 37.33619 -77.04026 2847 ft 146 kts 306°
2026-05-06 00:39 37.34403 -77.04832 2847 ft 146 kts 306°
2026-05-06 00:39 37.35178 -77.05658 2848 ft 146 kts 305°
2026-05-06 00:39 37.35951 -77.06486 2845 ft 147 kts 305°
2026-05-06 00:40 37.36728 -77.07320 2843 ft 147 kts 305°
2026-05-06 00:40 37.37503 -77.08160 2844 ft 147 kts 305°
2026-05-06 00:40 37.38275 -77.09001 2843 ft 147 kts 305°
2026-05-06 00:40 37.39049 -77.09837 2842 ft 147 kts 305°
2026-05-06 00:41 37.39813 -77.10686 2839 ft 146 kts 305°
2026-05-06 00:41 37.40572 -77.11533 2839 ft 145 kts 305°
2026-05-06 00:41 37.41332 -77.12366 2838 ft 144 kts 305°
2026-05-06 00:41 37.42083 -77.13175 2839 ft 144 kts 305°
2026-05-06 00:42 37.42837 -77.13990 2839 ft 143 kts 305°
2026-05-06 00:42 37.43595 -77.14809 2839 ft 143 kts 305°
2026-05-06 00:42 37.44347 -77.15628 2838 ft 142 kts 305°
2026-05-06 00:42 37.45090 -77.16448 2839 ft 142 kts 305°
2026-05-06 00:43 37.45871 -77.17289 2809 ft 157 kts 307°
2026-05-06 00:43 37.46737 -77.18206 2665 ft 160 kts 307°
2026-05-06 00:43 37.47590 -77.19094 2618 ft 162 kts 307°
2026-05-06 00:43 37.48443 -77.20016 2615 ft 161 kts 307°
2026-05-06 00:44 37.49296 -77.20937 2653 ft 162 kts 307°
2026-05-06 00:44 37.50051 -77.21857 2759 ft 134 kts 292°
2026-05-06 00:44 37.50345 -77.22818 3067 ft 107 kts 260°
2026-05-06 00:44 37.50326 -77.23784 3170 ft 122 kts 255°
2026-05-06 00:45 37.50277 -77.24880 2959 ft 129 kts 255°
2026-05-06 00:45 37.50202 -77.25967 2898 ft 123 kts 251°
2026-05-06 00:45 37.50111 -77.27014 2892 ft 117 kts 255°
2026-05-06 00:45 37.50086 -77.28061 2842 ft 124 kts 256°
2026-05-06 00:46 37.50132 -77.29148 2799 ft 125 kts 266°
2026-05-06 00:46 37.50524 -77.30176 2812 ft 134 kts 289°
2026-05-06 00:46 37.51174 -77.31039 2927 ft 138 kts 306°
2026-05-06 00:46 37.52006 -77.31798 2836 ft 159 kts 315°
2026-05-06 00:47 37.52920 -77.32556 2683 ft 157 kts 312°
2026-05-06 00:47 37.53765 -77.33417 2550 ft 148 kts 303°
2026-05-06 00:47 37.54476 -77.34309 2666 ft 142 kts 297°
2026-05-06 00:47 37.55198 -77.35126 2852 ft 147 kts 314°
2026-05-06 00:48 37.56150 -77.35730 2966 ft 155 kts 319°
2026-05-06 00:48 37.57039 -77.36477 2888 ft 155 kts 312°
2026-05-06 00:48 37.57924 -77.37227 2897 ft 153 kts 317°
2026-05-06 00:48 37.58865 -77.37919 2853 ft 158 kts 319°
2026-05-06 00:49 37.59790 -77.38574 2932 ft 150 kts 318°
2026-05-06 00:49 37.60713 -77.39236 2909 ft 155 kts 317°
2026-05-06 00:49 37.61671 -77.39876 2904 ft 152 kts 321°
2026-05-06 00:49 37.62548 -77.40565 3049 ft 149 kts 315°
2026-05-06 00:50 37.63581 -77.40973 3059 ft 164 kts 353°
2026-05-06 00:50 37.64739 -77.40711 3066 ft 177 kts
2026-05-06 00:50 37.65965 -77.40356 2837 ft 183 kts 11°
2026-05-06 00:50 37.67207 -77.40190 2612 ft 175 kts 345°
2026-05-06 00:51 37.68026 -77.40908 2445 ft 117 kts 273°
2026-05-06 00:51 37.67831 -77.41543 2663 ft 65 kts 214°
2026-05-06 00:51 37.67241 -77.41552 2624 ft 102 kts 179°
2026-05-06 00:51 37.66499 -77.41410 2521 ft 113 kts 182°
2026-05-06 00:52 37.65709 -77.41313 2392 ft 112 kts 183°
2026-05-06 00:52 37.64988 -77.40926 2343 ft 115 kts 164°
2026-05-06 00:52 37.64267 -77.40696 2453 ft 107 kts 180°
2026-05-06 00:52 37.63499 -77.40531 2422 ft 113 kts 176°
2026-05-06 00:53 37.62766 -77.40366 2455 ft 103 kts 180°
2026-05-06 00:53 37.62039 -77.40312 2449 ft 110 kts 181°
2026-05-06 00:53 37.61269 -77.40006 2309 ft 122 kts 163°
2026-05-06 00:53 37.60595 -77.39366 2311 ft 117 kts 155°
2026-05-06 00:54 37.59974 -77.38778 1949 ft 110 kts 159°
2026-05-06 00:54 37.59368 -77.38270 1735 ft 97 kts 165°
2026-05-06 00:54 37.58767 -77.37906 1731 ft 94 kts 169°
2026-05-06 00:54 37.58234 -77.37501 1684 ft 88 kts 164°
2026-05-06 00:55 37.57707 -77.37131 1535 ft 89 kts 161°
2026-05-06 00:55 37.57187 -77.36727 1456 ft 88 kts 161°
2026-05-06 00:55 37.56637 -77.36291 1231 ft 96 kts 160°
2026-05-06 00:55 37.56084 -77.35838 1140 ft 97 kts 156°
2026-05-06 00:56 37.55516 -77.35394 1022 ft 95 kts 155°
2026-05-06 00:56 37.54940 -77.34938 853 ft 100 kts 156°
2026-05-06 00:56 37.54354 -77.34466 729 ft 101 kts 154°
2026-05-06 00:56 37.53867 -77.33858 631 ft 90 kts 137°
2026-05-06 00:57 37.53498 -77.33319 589 ft 72 kts 140°
2026-05-06 00:57 37.53126 -77.32913 509 ft 67 kts 146°
2026-05-06 00:57 37.52726 -77.32587 427 ft 70 kts 155°
2026-05-06 00:57 37.52275 -77.32354 349 ft 69 kts 175°
2026-05-06 00:58 37.51889 -77.32363 250 ft 41 kts 194°
2026-05-06 00:58 37.51707 -77.32422 202 ft 20 kts 191°
2026-05-06 00:58 37.51594 -77.32456 182 ft 8 kts 191°
2026-05-06 00:58 37.51592 -77.32476 233 ft 17 kts
2026-05-06 00:59 37.51874 -77.32515 373 ft 57 kts 357°
2026-05-06 00:59 37.52374 -77.32487 723 ft 87 kts 353°
2026-05-06 00:59 37.53093 -77.32427 1054 ft 123 kts
2026-05-06 00:59 37.54087 -77.32352 1052 ft 156 kts
2026-05-06 01:00 37.55168 -77.32256 1169 ft 158 kts
2026-05-06 01:00 37.56283 -77.32117 1221 ft 162 kts
2026-05-06 01:00 37.57414 -77.31980 1235 ft 166 kts
2026-05-06 01:00 37.58561 -77.31865 1286 ft 167 kts
2026-05-06 01:01 37.59709 -77.31723 1342 ft 163 kts
2026-05-06 01:01 37.60850 -77.31586 1378 ft 167 kts
2026-05-06 01:01 37.62016 -77.31453 1448 ft 167 kts
2026-05-06 01:01 37.63162 -77.31296 1424 ft 166 kts
2026-05-06 01:02 37.64312 -77.31152 1422 ft 161 kts
2026-05-06 01:02 37.65440 -77.31011 1414 ft 168 kts
2026-05-06 01:02 37.66602 -77.30883 1413 ft 167 kts
2026-05-06 01:02 37.67758 -77.30756 1411 ft 167 kts
2026-05-06 01:03 37.68910 -77.30629 1407 ft 167 kts
2026-05-06 01:03 37.70061 -77.30509 1402 ft 166 kts
2026-05-06 01:03 37.71215 -77.30385 1404 ft 166 kts
2026-05-06 01:03 37.72364 -77.30267 1403 ft 166 kts
2026-05-06 01:04 37.73512 -77.30147 1405 ft 164 kts
2026-05-06 01:04 37.74659 -77.30033 1402 ft 166 kts
2026-05-06 01:04 37.75803 -77.29934 1404 ft 166 kts
2026-05-06 01:04 37.76933 -77.29792 1403 ft 161 kts
2026-05-06 01:05 37.78080 -77.29655 1400 ft 166 kts
2026-05-06 01:05 37.79244 -77.29578 1404 ft 168 kts
2026-05-06 01:05 37.80377 -77.29496 1398 ft 158 kts
2026-05-06 01:05 37.81474 -77.29376 1393 ft 161 kts
2026-05-06 01:06 37.82597 -77.29260 1395 ft 163 kts
2026-05-06 01:06 37.83741 -77.29129 1395 ft 165 kts 358°
2026-05-06 01:06 37.84889 -77.28956 1394 ft 168 kts 359°
2026-05-06 01:06 37.86057 -77.28771 1397 ft 166 kts
2026-05-06 01:07 37.87220 -77.28655 1388 ft 169 kts
2026-05-06 01:07 37.88380 -77.28529 1396 ft 164 kts
2026-05-06 01:07 37.89533 -77.28407 1395 ft 166 kts
2026-05-06 01:07 37.90690 -77.28303 1391 ft 168 kts
2026-05-06 01:08 37.91833 -77.28186 1396 ft 164 kts
2026-05-06 01:08 37.92981 -77.28060 1397 ft 165 kts
2026-05-06 01:08 37.94140 -77.27946 1392 ft 167 kts
2026-05-06 01:08 37.95290 -77.27866 1389 ft 162 kts
2026-05-06 01:09 37.96427 -77.27778 1384 ft 167 kts
2026-05-06 01:09 37.97553 -77.27666 1373 ft 165 kts
2026-05-06 01:09 37.98700 -77.27549 1371 ft 164 kts
2026-05-06 01:09 37.99852 -77.27444 1368 ft 166 kts
2026-05-06 01:10 38.01001 -77.27341 1365 ft 166 kts
2026-05-06 01:10 38.02148 -77.27223 1363 ft 166 kts
2026-05-06 01:10 38.03300 -77.27072 1370 ft 171 kts
2026-05-06 01:10 38.04481 -77.26925 1361 ft 170 kts
2026-05-06 01:11 38.05664 -77.26829 1357 ft 164 kts
2026-05-06 01:11 38.06797 -77.26723 1357 ft 165 kts
2026-05-06 01:11 38.07945 -77.26578 1355 ft 167 kts
2026-05-06 01:11 38.09121 -77.26441 1359 ft 166 kts
2026-05-06 01:12 38.10290 -77.26323 1360 ft 168 kts
2026-05-06 01:12 38.11440 -77.26224 1353 ft 166 kts
2026-05-06 01:12 38.12563 -77.26116 1353 ft 166 kts
2026-05-06 01:12 38.13716 -77.26044 1363 ft 163 kts
2026-05-06 01:13 38.14829 -77.25943 1354 ft 164 kts
2026-05-06 01:13 38.15972 -77.25827 1350 ft 167 kts
2026-05-06 01:13 38.17127 -77.25738 1356 ft 164 kts
2026-05-06 01:13 38.18235 -77.25691 1353 ft 157 kts
2026-05-06 01:14 38.20444 -77.25537 1360 ft 165 kts
2026-05-06 01:14 38.21588 -77.25406 1353 ft 165 kts
2026-05-06 01:14 38.22717 -77.25329 1355 ft 156 kts 358°
2026-05-06 01:15 38.23815 -77.25284 1353 ft 159 kts 358°
2026-05-06 01:15 38.24932 -77.25217 1346 ft 160 kts 358°
2026-05-06 01:15 38.26051 -77.25138 1350 ft 162 kts 358°
2026-05-06 01:15 38.27185 -77.25052 1353 ft 164 kts 358°
2026-05-06 01:16 38.28321 -77.24965 1352 ft 164 kts 358°
2026-05-06 01:16 38.29448 -77.24881 1354 ft 163 kts 358°
2026-05-06 01:16 38.30581 -77.24798 1351 ft 163 kts 358°
2026-05-06 01:16 38.31719 -77.24723 1351 ft 160 kts 358°
2026-05-06 01:17 38.32812 -77.24678 1348 ft 156 kts 358°
2026-05-06 01:17 38.33909 -77.24630 1348 ft 158 kts 358°
2026-05-06 01:17 38.35034 -77.24533 1347 ft 165 kts 359°
2026-05-06 01:17 38.36172 -77.24427 1351 ft 165 kts 359°
2026-05-06 01:18 38.37311 -77.24325 1347 ft 164 kts 359°
2026-05-06 01:18 38.38451 -77.24214 1346 ft 164 kts 359°
2026-05-06 01:18 38.39593 -77.24100 1351 ft 163 kts 359°
2026-05-06 01:18 38.40718 -77.23980 1351 ft 168 kts 359°
2026-05-06 01:19 38.41879 -77.23838 1348 ft 163 kts 360°
2026-05-06 01:19 38.43040 -77.23684 1344 ft 163 kts 360°
2026-05-06 01:19 38.44149 -77.23560 1347 ft 163 kts
2026-05-06 01:19 38.45279 -77.23422 1351 ft 161 kts
2026-05-06 01:20 38.46446 -77.23238 1350 ft 169 kts
2026-05-06 01:20 38.47605 -77.23054 1347 ft 170 kts
2026-05-06 01:20 38.48754 -77.22881 1351 ft 162 kts
2026-05-06 01:20 38.49513 -77.22747 1344 ft 169 kts
2026-05-06 01:21 38.51014 -77.22589 1345 ft 162 kts
2026-05-06 01:21 38.52158 -77.22460 1347 ft 163 kts
2026-05-06 01:21 38.53277 -77.22354 1346 ft 163 kts
2026-05-06 01:21 38.54031 -77.22278 1345 ft 159 kts
2026-05-06 01:22 38.55133 -77.22180 1354 ft 164 kts
2026-05-06 01:22 38.56288 -77.22031 1349 ft 167 kts
2026-05-06 01:22 38.57452 -77.21862 1351 ft 169 kts
2026-05-06 01:22 38.58594 -77.21696 1347 ft 163 kts
2026-05-06 01:23 38.59720 -77.21543 1349 ft 167 kts
2026-05-06 01:23 38.60880 -77.21354 1351 ft 165 kts
2026-05-06 01:23 38.62029 -77.21186 1341 ft 167 kts
2026-05-06 01:23 38.63185 -77.21012 1345 ft 169 kts
2026-05-06 01:24 38.64371 -77.20802 1338 ft 171 kts
2026-05-06 01:24 38.65510 -77.20596 1339 ft 162 kts
2026-05-06 01:24 38.66638 -77.20407 1339 ft 166 kts
2026-05-06 01:24 38.67777 -77.20210 1313 ft 169 kts
2026-05-06 01:25 38.68947 -77.19981 1313 ft 170 kts
2026-05-06 01:25 38.70110 -77.19746 1314 ft 169 kts
2026-05-06 01:25 38.71253 -77.19528 1312 ft 164 kts
2026-05-06 01:25 38.72393 -77.19331 1313 ft 165 kts
2026-05-06 01:26 38.73529 -77.19138 1312 ft 166 kts
2026-05-06 01:26 38.74750 -77.18883 1303 ft 185 kts 10°
2026-05-06 01:26 38.75897 -77.18459 1322 ft 172 kts 17°
2026-05-06 01:26 38.77004 -77.17988 1313 ft 166 kts 20°
2026-05-06 01:27 38.78103 -77.17511 1310 ft 167 kts 19°
2026-05-06 01:27 38.79216 -77.17020 1310 ft 172 kts 19°
2026-05-06 01:27 38.80315 -77.16525 1310 ft 167 kts 20°
2026-05-06 01:27 38.81438 -77.16009 1303 ft 174 kts 42°
2026-05-06 01:28 38.82583 -77.15452 1313 ft 177 kts 45°
2026-05-06 01:28 38.83680 -77.14698 1313 ft 184 kts 94°
2026-05-06 01:28 38.84586 -77.13595 1322 ft 169 kts 54°
2026-05-06 01:28 38.85443 -77.12564 1322 ft 164 kts 58°
2026-05-06 01:29 38.86090 -77.11444 1223 ft 144 kts 91°
2026-05-06 01:29 38.85977 -77.10468 1192 ft 71 kts 161°
2026-05-06 01:29 38.85531 -77.10435 1289 ft 79 kts 192°
2026-05-06 01:29 38.84917 -77.10588 1112 ft 93 kts 192°
2026-05-06 01:30 38.84367 -77.10435 1045 ft 67 kts 158°
2026-05-06 01:30 38.84068 -77.10040 1052 ft 48 kts 143°
2026-05-06 01:30 38.83786 -77.10131 890 ft 52 kts 223°
2026-05-06 01:30 38.83642 -77.10503 773 ft 67 kts 206°
2026-05-06 01:31 38.83097 -77.10085 723 ft 119 kts 138°
2026-05-06 01:31 38.82875 -77.08949 520 ft 141 kts 99°
2026-05-06 01:31 38.82873 -77.07738 503 ft 128 kts 90°
2026-05-06 01:31 38.83180 -77.06745 514 ft 117 kts 55°
2026-05-06 01:32 38.83730 -77.06034 414 ft 110 kts 52°
2026-05-06 01:32 38.84175 -77.05326 311 ft 98 kts 58°
2026-05-06 01:32 38.84534 -77.04721 134 ft 66 kts 53°
2026-05-06 01:32 38.84633 -77.04460 30 ft 6 kts 233°
2026-05-06 01:33 38.84605 -77.04559 29 ft 9 kts 261°
2026-05-06 01:33 38.84605 -77.04595 19 ft 0 kts 270°